Showing default

ICEYE-X42, 62698

Orbit data source: Space-Track

ICEYE-X42, 62698 is an Emirian payload satellite in SSO that was launched on Tue, 14 Jan 2025 UTC via an FALCON 9 launch vehicle from the Air Force Western Test Range (AFWTR). Payload-class satellites include a variety of spacecraft equipped with specific instruments for various scientific and technological missions. These include communications satellites like Starlink; space stations such as the ISS; scientific satellites like the Hubble; Earth observation satellites from companies like Planet Labs, Umbra, and HawkEye 360; GPS; miniature CubeSats for education and research; and military/defense satellites.

Loading next visibility...
Identifier
62698, 2025-009CT
Orbit
SSO
Country
Flag of AEAE / UAE
Related business
None
Manufacturer
ICEYE
Mission
Operational Commercial Radar Imaging
Bus & Motor
ICEYE, Unknown motor
Mass
80 kg wet, 80 kg dry
Launch date (UTC)
2025-01-14 (2 years ago)
Launch vehicle
FALCON 9
Launch site
Air Force Western Test Range (AFWTR)
Object type
Payload
Rocket body
Debris
Shape & HBR
Box + 1 Pan, 2.4 m
Radar Cross Section
0.776 m², Medium (>0.1 m² and < 1m²)

Expand to show TLE details & history
Last TLE update: 9 hours ago

TLE from 9 hours ago
0 ICEYE-X42
1 62698U 25009CT  26238.09748813  .00001875  00000-0  19162-3 0  9991
2 62698  97.7382 315.1437 0001264  93.1501 266.9862 14.91760504 87714
Epoch: 2026-08-26T02:20Z
TLE epoch observation values (Epoch: 2026-08-26T02:20:22.974Z)
Latitude
-0.00007°
Longitude
-54.30739°
Altitude
595.535 km
Speed
7.562 km/s
True Right ascension
21h 00m 34s
True Declination
0° 00' 00"
Sunlit
Object was in full shadow at epoch
Visualization orbit readout
Latitude
Unknown
Longitude
Unknown
Altitude
Unknown
Speed
Unknown
Apparent Right ascension
Unknown
Apparent Declination
Unknown
Sunlit
N/A
Visualization observer readout
Local Sidereal Time
02:59:53
Azimuth
Unknown
Elevation
Unknown
Doppler factor
Unknown
Orbital elements
Apogee altitude
590.345 km
Perigee altitude
588.583 km
Semi-major axis
6,967.601 km
Eccentricity
0.00013
Inclination
97.7382°
RAAN
315.1437°
Arg. of periapsis
93.1501°
True anomaly
266.97174°
Mean anomaly
266.9862°
Eccentric anomaly
266.97897°
Mean motion
3.7318 °/min
Orbital period
96.47 mins
BSTAR
0.00019162
Loading maneuver chart data...
Computing Atmospheric mass density...
Loading historical data...
Loading historical data...
Loading historical data...
Loading historical data...
Loading historical data...
Loading historical data...
Loading historical data...

Documentation

Showing up to 5 results
|